Starlink 30904

operational
NORAD ID: 58364 Int'l Des: 2023-177 Owner: SPXS Country: US Constellation: starlink
LEOCIRCULAR

About Starlink 30904

Description loading...

Live Position

Loading 3D Globe...

Upcoming Passes

Altitude History

Altitude vs Time

uPlot chart will show altitude changes over time

Two-Line Element Set

1 58364U 23177P 25303.52976222 -.00000714 00000-0 -37795-4 0 9993
2 58364 43.0049 337.3609 0001189 273.0733 86.9973 15.02544732108658
Epoch: Oct 30, 2025 • Age: 28 hours

Current Status

Altitude 570.1 km
Velocity 7.58 km/s
Sub-Earth Point -39.52°S, 27.87°W
Launch Date Nov 18, 2023
Age 1.9 years
Type internet

Technical Details

Classification Payload
Mass 730.00 kg
Dry Mass 700.00 kg
Total Mass 730.00 kg
Length 0.30 m
Diameter 4.10 m
Span 29.00 m
Shape Box + pan
Manufacturer SPXS
Bus Type Starlink V2M
Phase Status In Orbit
Owner/State SPXS/US

Large Constellations

Loading constellations...